Back to catalog

STARLINK-36425

AliveCommunicationsVLEO
NORAD 67467·PAYLOAD·🇺🇸 United States

Launched Jan 14, 2026 from Cape Canaveral Space Force Station

Loading…

Next Passes (next 24 hours)

TLE

FreshSource: CelesTrak SupGP

Epoch: Sep 14, 2026, 20:55 UTC

1 67467C 26008Y   26257.87201389  .00039319  00000+0  14241-2 0  2571
2 67467  43.0028 217.0939 0001411 262.3340  44.7264 15.27558347    12

Track STARLINK-36425 in real time with AllMySat

Download on the App Store